Waarnemingen

Advertentie
Mijn weer
Gueret-St Laurent, Frankrijk (7361): temperatuur & dauwpunt: 13.10.2019 22:00:00 - 19.10.2019 22:00:00 (CEST)Gueret-St Laurent, Frankrijk (7361): temperatuur 5cm: 13.10.2019 22:00:00 - 19.10.2019 22:00:00 (CEST)Gueret-St Laurent, Frankrijk (7361): temperatuur -20cm & temperatuur -100cm: 13.10.2019 22:00:00 - 19.10.2019 22:00:00 (CEST)Gueret-St Laurent, Frankrijk (7361): windsnelheid & windstoten: 13.10.2019 22:00:00 - 19.10.2019 22:00:00 (CEST)Gueret-St Laurent, Frankrijk (7361): windrichting: 13.10.2019 22:00:00 - 19.10.2019 22:00:00 (CEST)Gueret-St Laurent, Frankrijk (7361): luchtdruk: 13.10.2019 22:00:00 - 19.10.2019 22:00:00 (CEST)Gueret-St Laurent, Frankrijk (7361): zicht: 13.10.2019 22:00:00 - 19.10.2019 22:00:00 (CEST)Gueret-St Laurent, Frankrijk (7361): Zonneschijnduur: 13.10.2019 22:00:00 - 19.10.2019 22:00:00 (CEST)Gueret-St Laurent, Frankrijk (7361): neerslag: 13.10.2019 22:00:00 - 19.10.2019 22:00:00 (CEST)
Datum & Tijd tt [°C] td [°C] tt 5cm [°C] tt -20cm [°C] tt -100cm [°C] ff [km/u] ff [kn] fx [km/u] fx [kn] dd ppp [hPa] vv [km] sd [min] rr [mm]
19.10.2019 22:00:00 13,2 11,6 12,4 15,8 16,6 2 1 6 3 W 1005,6 9 0 0,4
19.10.2019 21:00:00 13,3 11,5 12,5 15,8 16,7 2 1 3 2 NNW 1005,2 20 0 0,0
19.10.2019 20:00:00 13,7 11,4 12,7 15,7 16,6 0 0 4 2 N 1005,2 20 0 0,0
19.10.2019 19:00:00 14,5 11,3 13,1 15,7 16,7 0 0 2 1 N 1004,9 15 0 0,0
19.10.2019 18:00:00 15,5 10,9 15,0 15,7 16,7 2 1 17 9 ZZW 1004,9 20 0 0,0
19.10.2019 17:00:00 15,9 10,2 15,6 15,7 16,7 11 6 22 12 Z 1005,1 20 0 0,0
19.10.2019 16:00:00 16,2 10,1 16,1 15,7 16,7 11 6 26 14 ZZW 1005,5 20 0 0,0
19.10.2019 15:00:00 17,4 11,2 18,9 15,7 16,7 10 5 28 15 ZZW 1005,2 20 32 0,0
19.10.2019 14:00:00 17,1 11,4 17,0 15,7 16,7 13 7 35 19 Z 1006,0 20 5 0,0
19.10.2019 13:00:00 16,3 10,4 16,9 15,7 16,7 18 10 30 16 Z 1006,5 20 0 0,0
19.10.2019 12:00:00 16,3 10,8 15,8 15,7 16,7 13 7 26 14 Z 1006,8 20 6 0,0
19.10.2019 11:00:00 15,2 10,8 15,1 15,7 16,7 11 6 19 10 Z 1007,0 20 14 0,0
19.10.2019 10:00:00 13,7 10,9 10,9 15,8 16,7 8 4 13 7 ZO 1007,3 20 1 0,0
19.10.2019 09:00:00 11,4 9,6 9,2 15,8 16,7 5 3 12 7 O 1007,7 20 0 0,0
19.10.2019 08:00:00 11,3 9,6 9,1 15,9 16,7 2 1 8 5 O 1007,3 17 0 0,0
19.10.2019 07:00:00 12,1 9,8 9,7 15,8 16,7 5 3 11 6 OZO 1007,7 20 0 0,0
19.10.2019 06:00:00 12,3 10,2 10,9 15,9 16,7 6 4 15 8 OZO 1008,0 20 0 0,0
19.10.2019 05:00:00 11,8 10,0 10,5 15,9 16,7 5 3 10 5 OZO 1008,5 20 0 0,0
19.10.2019 04:00:00 12,0 9,7 10,7 15,9 16,7 4 2 16 9 NNO 1008,9 20 0 0,0
19.10.2019 03:00:00 12,8 10,0 11,2 15,9 16,7 9 5 22 12 Z 1009,4 20 0 0,0
19.10.2019 02:00:00 12,5 10,0 9,9 15,9 16,7 6 3 16 9 Z 1009,7 20 0 0,0
19.10.2019 01:00:00 11,8 9,7 9,8 15,9 16,7 4 2 12 7 OZO 1010,4 20 0 0,0
19.10.2019 00:00:00 12,5 10,0 11,1 15,9 16,7 9 5 20 11 O 1010,5 20 0 0,0
18.10.2019 23:00:00 12,8 10,2 11,8 15,9 16,7 11 6 18 10 ZO 1010,7 20 0 0,0
18.10.2019 22:00:00 12,8 10,3 12,0 15,9 16,7 8 4 14 8 OZO 1011,2 20 0 0,0
18.10.2019 21:00:00 13,0 10,5 11,5 15,8 16,7 8 5 14 8 ZO 1011,9 20 0 0,0
18.10.2019 20:00:00 13,4 10,4 11,9 15,8 16,7 7 4 21 12 OZO 1012,3 20 0 0,0
18.10.2019 19:00:00 13,9 11,1 12,4 15,8 16,7 10 5 22 12 Z 1012,5 14 0 0,0
18.10.2019 18:00:00 14,8 10,2 14,4 15,7 16,7 10 6 23 12 Z 1012,6 20 0 0,0
18.10.2019 17:00:00 15,5 10,0 16,2 15,7 16,7 6 4 21 11 ZZW 1012,7 20 0 0,0
18.10.2019 16:00:00 15,9 9,8 17,2 15,7 16,7 11 6 29 16 ZZW 1012,8 20 20 0,0
18.10.2019 15:00:00 16,1 9,3 18,6 15,7 16,8 11 6 28 15 ZZW 1013,0 20 51 0,0
18.10.2019 14:00:00 15,2 11,2 18,0 15,7 16,7 13 7 23 13 ZZW 1013,7 20 30 0,0
18.10.2019 13:00:00 14,3 10,9 12,8 15,7 16,8 6 3 17 9 ZZW 1014,2 20 5 0,0
18.10.2019 12:00:00 12,9 10,6 12,3 15,8 16,8 10 5 28 15 W 1014,8 7 0 0,2
18.10.2019 11:00:00 13,7 10,3 13,2 15,8 16,8 5 3 24 13 ZW 1014,2 20 0 0,0
18.10.2019 10:00:00 13,3 10,5 12,0 15,8 16,8 4 2 18 10 ZZW 1013,9 20 0 0,0
18.10.2019 09:00:00 13,4 10,9 11,9 15,8 16,8 10 5 26 14 ZZW 1013,0 20 0 0,2
18.10.2019 08:00:00 13,3 11,2 11,9 15,8 16,8 10 5 26 14 ZZW 1012,5 19 0 0,2
18.10.2019 07:00:00 13,6 11,1 11,9 15,8 16,8 8 4 20 11 ZZW 1012,3 20 0 0,0
18.10.2019 06:00:00 13,8 11,3 12,2 15,8 16,8 11 6 25 14 Z 1012,0 20 0 0,0
18.10.2019 05:00:00 14,2 11,9 12,1 15,8 16,8 11 6 28 15 Z 1012,2 20 0 0,0
18.10.2019 04:00:00 13,8 11,8 11,8 15,8 16,8 6 3 18 10 ZZO 1012,3 20 0 0,0
18.10.2019 03:00:00 13,4 12,0 12,0 15,8 16,8 4 2 14 7 OZO 1013,1 20 0 0,0
18.10.2019 02:00:00 13,4 11,8 11,3 15,9 16,8 4 2 17 9 ZO 1013,5 20 0 0,0
18.10.2019 01:00:00 14,2 12,1 13,0 15,9 16,8 8 4 27 15 ZZW 1013,5 20 0 0,2
18.10.2019 00:00:00 14,6 11,7 11,9 15,8 16,8 16 9 32 17 ZZW 1013,5 20 0 0,2
17.10.2019 23:00:00 13,7 11,0 9,8 15,8 16,8 8 5 16 8 O 1013,4 20 0 0,0
17.10.2019 22:00:00 13,5 11,2 10,9 15,8 16,8 8 5 15 8 ZO 1013,5 20 0 0,0
17.10.2019 21:00:00 14,0 11,5 12,3 15,8 16,8 6 4 26 14 ZZO 1013,9 20 0 0,0
17.10.2019 20:00:00 14,1 11,8 12,5 15,8 16,8 11 6 24 13 Z 1013,9 20 0 0,0
17.10.2019 19:00:00 14,4 11,7 13,0 15,8 16,8 12 7 24 13 Z 1013,5 20 33 0,0
17.10.2019 18:00:00 14,8 11,9 13,9 15,8 16,8 13 7 27 14 Z 1013,1 20 5 0,0
17.10.2019 17:00:00 14,5 12,7 14,2 15,8 16,8 16 8 36 19 Z 1013,4 11 4 0,2
17.10.2019 16:00:00 16,4 11,3 17,8 15,8 16,8 20 11 40 21 Z 1012,9 20 39 0,0
17.10.2019 15:00:00 16,0 11,0 15,4 15,8 16,8 15 8 36 19 Z 1013,3 20 8 0,0
17.10.2019 14:00:00 14,6 10,6 13,0 15,8 16,8 10 5 38 20 Z 1013,7 20 0 0,2
17.10.2019 13:00:00 14,3 10,3 14,4 15,8 16,8 22 12 40 22 Z 1013,7 20 0 0,0
17.10.2019 12:00:00 14,5 10,9 14,0 15,9 16,8 19 10 42 23 Z 1013,5 20 0 0,0
17.10.2019 11:00:00 14,8 10,0 13,7 15,8 16,8 14 8 30 16 Z 1013,1 20 0 0,0
17.10.2019 10:00:00 14,5 9,3 12,8 15,9 16,8 6 3 29 15 ZO 1013,3 20 0 0,0
17.10.2019 09:00:00 14,9 9,0 13,6 15,9 16,8 9 5 26 14 ZZO 1012,7 20 0 0,0
17.10.2019 08:00:00 14,6 9,0 13,1 15,9 16,8 7 4 18 10 OZO 1012,2 20 0 0,0
17.10.2019 07:00:00 14,7 9,1 13,3 15,9 16,8 7 4 16 9 OZO 1011,9 20 0 0,0
17.10.2019 06:00:00 14,4 9,6 12,4 15,9 16,8 8 4 13 7 OZO 1012,3 20 0 0,0
17.10.2019 05:00:00 14,6 9,6 12,9 15,9 16,8 4 2 17 9 O 1012,4 20 0 0,0
17.10.2019 04:00:00 14,8 9,6 12,5 15,9 16,9 8 4 16 9 ZZO 1013,1 20 0 0,0
17.10.2019 03:00:00 14,1 9,5 13,0 15,9 16,9 8 5 21 11 O 1013,4 20 0 0,0
17.10.2019 02:00:00 14,1 9,9 12,9 15,9 16,8 10 5 24 13 OZO 1013,5 20 0 0,0
17.10.2019 01:00:00 14,1 10,1 13,2 15,9 16,8 15 8 35 19 Z 1013,7 20 0 0,0
17.10.2019 00:00:00 14,4 9,6 13,6 15,9 16,9 19 10 41 22 Z 1013,8 20 0 0,0
16.10.2019 23:00:00 14,7 8,9 13,6 15,9 16,9 18 10 35 19 ZZW 1013,6 20 0 0,0
16.10.2019 22:00:00 14,7 8,9 13,7 15,9 16,9 17 9 39 21 Z 1013,4 20 0 0,0
16.10.2019 21:00:00 14,7 8,6 13,6 15,9 16,9 17 9 30 16 Z 1013,0 20 0 0,0
16.10.2019 20:00:00 15,2 8,7 14,0 15,9 16,9 14 8 31 17 Z 1012,8 20 0 0,0
16.10.2019 19:00:00 15,3 8,8 13,3 15,9 16,9 10 5 23 12 ZZO 1012,6 20 0 0,0
16.10.2019 18:00:00 16,1 8,8 15,6 15,8 16,9 13 7 33 18 Z 1012,5 20 12 0,0
16.10.2019 17:00:00 16,9 8,1 17,2 15,8 16,9 14 8 43 23 Z 1012,6 20 18 0,0
16.10.2019 16:00:00 18,3 7,7 16,6 15,9 16,9 22 12 42 23 Z 1013,0 20 52 0,0
16.10.2019 15:00:00 17,4 7,2 19,3 15,8 16,9 24 13 48 26 ZZW 1013,2 20 56 0,0
16.10.2019 14:00:00 17,7 7,7 17,4 15,9 16,9 20 11 44 24 ZZW 1013,6 20 32 0,0
16.10.2019 13:00:00 17,1 9,3 16,3 15,9 16,9 18 10 37 20 Z 1014,1 20 20 0,0
16.10.2019 12:00:00 15,4 7,2 16,3 15,9 16,9 24 13 40 22 Z 1014,5 20 52 0,0
16.10.2019 11:00:00 15,3 7,8 16,9 16,0 16,9 16 9 33 18 Z 1014,7 20 60 0,0
16.10.2019 10:00:00 13,6 8,8 11,0 16,0 16,9 8 5 28 15 OZO 1014,8 20 60 0,0
16.10.2019 09:00:00 11,5 8,4 9,9 16,0 16,9 18 10 28 15 Z 1014,8 20 28 0,0
16.10.2019 08:00:00 11,2 8,2 9,8 16,0 16,9 14 8 26 14 Z 1015,0 20 0 0,0
16.10.2019 07:00:00 11,1 8,7 8,5 16,1 16,9 13 7 20 11 Z 1015,0 20 0 0,0
16.10.2019 06:00:00 11,3 9,2 9,7 16,1 16,9 9 5 29 15 Z 1015,1 20 0 0,0
16.10.2019 05:00:00 12,1 9,8 10,5 16,1 16,9 15 8 29 16 Z 1015,3 20 0 0,0
16.10.2019 04:00:00 12,0 9,6 10,4 16,2 16,9 11 6 24 13 Z 1015,7 20 0 0,0
16.10.2019 03:00:00 12,2 9,8 11,0 16,2 16,9 10 6 29 16 ZZW 1016,3 20 0 0,0
16.10.2019 02:00:00 11,9 9,5 11,0 16,2 16,9 15 8 34 18 Z 1016,3 20 0 0,0
16.10.2019 01:00:00 11,8 9,2 10,4 16,2 16,9 14 8 32 18 Z 1016,4 20 0 0,0
16.10.2019 00:00:00 11,5 8,9 9,2 16,2 16,9 14 7 23 12 Z 1016,5 20 0 0,0
15.10.2019 23:00:00 11,2 8,6 9,7 16,2 16,9 4 2 18 10 ZO 1016,5 20 0 0,0
15.10.2019 22:00:00 11,4 8,4 10,3 16,2 16,9 11 6 24 13 Z 1016,1 20 0 0,0
15.10.2019 21:00:00 11,1 9,0 8,7 16,2 16,9 7 4 16 9 ZZW 1016,0 20 0 0,0
15.10.2019 20:00:00 10,6 8,5 8,8 16,2 16,9 9 5 22 12 Z 1015,7 20 0 0,0
15.10.2019 19:00:00 11,5 8,2 9,9 16,2 16,9 9 5 26 14 ZZW 1014,9 20 17 0,0
15.10.2019 18:00:00 12,9 9,2 11,9 16,2 16,9 5 3 21 11 ZW 1013,7 20 23 0,0
15.10.2019 17:00:00 13,4 8,5 13,8 16,2 16,9 10 5 29 16 ZZW 1013,4 20 27 0,0
15.10.2019 16:00:00 14,2 7,7 16,9 16,2 16,9 13 7 33 18 ZW 1012,8 20 60 0,0
15.10.2019 15:00:00 13,3 8,8 13,2 16,3 16,9 10 6 31 17 ZW 1012,8 20 27 0,0
15.10.2019 14:00:00 11,9 9,1 11,3 16,3 16,9 9 5 22 12 WZW 1012,9 16 0 0,2
15.10.2019 13:00:00 11,0 9,4 10,9 16,3 16,9 10 5 30 16 WZW 1012,8 19 0 0,8
15.10.2019 12:00:00 11,6 9,5 11,5 16,4 16,9 5 3 28 15 ZW 1012,3 20 0 0,2
15.10.2019 11:00:00 11,2 8,4 11,3 16,4 16,9 11 6 27 14 ZW 1011,5 20 0 0,0
15.10.2019 10:00:00 10,8 8,6 10,5 16,4 16,9 9 5 29 15 WZW 1010,8 20 0 0,0
15.10.2019 09:00:00 10,9 9,0 10,3 16,5 16,9 10 5 32 17 WZW 1010,0 20 0 0,0
15.10.2019 08:00:00 11,4 9,6 10,6 16,5 16,9 9 5 25 14 ZZW 1009,3 20 0 0,0
15.10.2019 07:00:00 11,6 10,2 10,8 16,5 16,9 8 4 18 10 Z 1008,7 20 0 0,2
15.10.2019 06:00:00 11,4 10,6 10,3 16,6 16,9 6 4 13 7 O 1008,8 20 0 0,0
15.10.2019 05:00:00 11,3 10,4 9,6 16,6 16,9 4 2 14 8 ZZO 1008,8 20 0 0,0
15.10.2019 04:00:00 10,8 10,0 9,6 16,7 16,9 0 0 10 5 N 1008,7 20 0 0,0
15.10.2019 03:00:00 11,3 11,0 10,7 16,7 16,8 3 2 10 6 O 1009,1 20 0 0,2
15.10.2019 02:00:00 11,5 11,0 11,1 16,8 16,9 6 3 19 10 ZO 1008,5 20 0 3,9
15.10.2019 01:00:00 11,8 11,5 11,4 16,8 16,9 8 4 12 6 OZO 1008,9 12 0 6,0
15.10.2019 00:00:00 12,1 11,5 11,6 16,8 16,9 4 2 11 6 ZZO 1009,7 12 0 3,0
14.10.2019 23:00:00 12,4 11,8 11,8 16,8 16,9 4 2 14 8 O 1010,0 9 0 2,3
14.10.2019 22:00:00 12,6 11,8 12,2 16,8 16,9 5 3 16 9 ZO 1009,7 6 0 3,2
14.10.2019 21:00:00 12,6 11,8 11,9 16,8 16,9 4 2 27 15 O 1009,0 8 0 6,1
14.10.2019 20:00:00 13,6 10,8 12,2 16,7 16,9 10 6 69 37 W 1009,8 9 0 2,8
14.10.2019 19:00:00 20,4 13,4 17,9 16,7 16,9 21 11 37 20 ZO 1005,8 20 0 0,0
14.10.2019 18:00:00 20,9 13,3 19,6 16,6 16,9 18 10 40 22 ZZO 1006,8 20 0 0,0
14.10.2019 17:00:00 21,8 13,2 21,4 16,6 16,9 23 13 50 27 Z 1006,8 20 14 0,0
14.10.2019 16:00:00 22,6 13,1 20,0 16,6 16,9 23 12 45 25 Z 1007,2 20 2 0,0
14.10.2019 15:00:00 24,1 12,4 23,2 16,6 16,9 13 7 29 15 ZZO 1005,4 20 3 0,0
14.10.2019 14:00:00 23,4 12,1 22,8 16,6 16,9 17 9 32 17 ZO 1005,9 20 0 0,0
14.10.2019 13:00:00 23,8 12,7 23,7 16,6 16,8 9 5 49 26 ZZO 1006,6 20 17 0,0
14.10.2019 12:00:00 23,8 12,1 21,3 16,7 16,9 16 9 32 17 ZZO 1007,1 20 35 0,0
14.10.2019 11:00:00 21,8 12,1 22,4 16,7 16,8 13 7 34 19 ZZO 1008,1 20 58 0,0
14.10.2019 10:00:00 20,3 12,0 15,6 16,7 16,9 6 3 29 15 OZO 1008,8 20 48 0,0
14.10.2019 09:00:00 17,7 11,0 15,0 16,8 16,9 8 4 31 17 ZZO 1009,4 20 1 0,0
14.10.2019 08:00:00 18,0 10,8 11,9 16,8 16,9 14 8 27 14 ZZO 1009,3 20 0 0,0
14.10.2019 07:00:00 16,3 11,2 11,9 16,8 16,9 5 3 16 9 OZO 1010,0 20 0 0,0
14.10.2019 06:00:00 15,1 11,5 12,1 16,8 16,9 7 4 16 9 ONO 1010,4 20 0 0,0
14.10.2019 05:00:00 14,6 11,6 10,9 16,8 16,9 7 4 13 7 ONO 1011,0 20 0 0,0
14.10.2019 04:00:00 14,6 11,4 11,8 16,8 16,9 6 3 11 6 O 1011,8 20 0 0,0
14.10.2019 03:00:00 14,5 11,6 12,5 16,8 16,9 9 5 13 7 ONO 1012,5 20 0 0,0
14.10.2019 02:00:00 15,4 11,8 13,1 16,8 16,9 5 3 14 7 O 1012,8 20 0 0,0
14.10.2019 01:00:00 17,1 12,4 13,2 16,8 16,9 8 5 22 12 ZO 1013,0 20 0 0,0
14.10.2019 00:00:00 16,1 12,8 10,3 16,8 16,9 9 5 15 8 O 1013,6 20 0 0,0
13.10.2019 23:00:00 15,2 13,7 11,3 16,8 16,9 4 2 7 4 O 1014,2 20 0 0,0
13.10.2019 22:00:00 17,1 15,1 14,4 16,7 16,9 3 1 6 3 ZZO 1014,1 20 0 0,2

tt = temperatuur
td = dauwpunt
tt 5cm = temperatuur 5cm
tt -20cm = temperatuur -20cm
tt -100cm = temperatuur -100cm
ff = windsnelheid
fx = windstoten
dd = windrichting
ppp = luchtdruk
vv = zicht
sd = Zonneschijnduur
rr = neerslag

Weerstations in de omgeving